Location: Prague
(50.0830°N, 14.4670°E)
Time: 04:55:41
(UTC+01:00)

ITUPSAT 1 - Pass Details

Date: 05 December 2021
Orbit: 701 x 712 km, 98.6° (Epoch: 18 January)

Event Time Altitude Azimuth Distance (km) Brightness Sun altitude
Rises 05:48:07 0° 135° (SE) 3,094 ? -17.7°
Reaches altitude 10° 05:50:32 10° 125° (SE) 2,181 ? -17.3°
Maximum altitude 05:54:45 32° 63° (ENE) 1,210 ? -16.7°
Drops below altitude 10° 05:59:01 10° 2° (N) 2,201 ? -16.0°
Sets 06:01:28 0° 352° (N) 3,126 ? -15.6°
